カタログに戻る

CZ-3C DEB

LostHEO
NORAD 48548·DEBRIS·🇨🇳 China

打ち上げ Feb 24, 2012 から Xichang Satellite Launch Center

Loading…

次のパス (今後24時間)

TLE

古いSource: Space-Track

元期: Aug 14, 2024, 15:57 UTC

1 48548U 12008AT  24227.66472624  .00162071  00000-0  11128+0 0  9993
2 48548  21.2388 309.9235 6551337 224.9504  58.3445  3.19477155101005

AllMySatでCZ-3C DEBをリアルタイム追跡

Download on the App Store